CAPE
1529 1652 1674 1647 1599 1565 1597 1664 1720 1726 1730 1734 1710 1691 1670 1631 1586 1523 1523 1576 1662 1757 1818 1852 1880 1929 1925 1934 1996 1971 1724 1233 1058 1005 811 0 0 0 0 0 0 0 0 0 0 0 0 0 0 0 0 1 2 1 0 0 0 0 0 0 0 0 0 0 0 0 0 0 0 0 0 2 19 0 6 0 0 0 44 14 21 37 33 14 3
1535 1654 1731 1758 1733 1689 1660 1682 1747 1783 1795 1807 1803 1774 1748 1713 1671 1608 1562 1584 1619 1710 1782 1811 1812 1788 1753 1776 1890 1896 1725 1291 980 940 745 20 0 0 0 0 0 0 0 0 0 0 0 0 0 0 0 3 1 4 0 0 0 0 0 0 0 27 3 0 0 2 4 0 1 0 8 46 81 68 22 23 8 9 0 0 0 1 4 3 4
1549 1639 1732 1796 1822 1793 1769 1766 1799 1837 1852 1862 1871 1857 1820 1782 1741 1712 1691 1667 1653 1698 1719 1708 1688 1670 1651 1672 1738 1757 1652 1334 975 888 758 524 0 0 0 0 0 0 0 0 0 0 0 0 0 0 0 3 3 2 1 0 0 0 0 0 0 41 42 24 17 1 52 69 57 60 67 66 71 85 60 27 22 4 1 1 3 5 14 10 12
1603 1664 1732 1794 1841 1852 1841 1832 1836 1878 1906 1919 1943 1931 1885 1835 1799 1764 1772 1749 1721 1693 1631 1584 1555 1547 1547 1545 1569 1606 1521 1253 1021 886 731 547 400 0 0 0 0 0 0 0 0 0 0 0 0 0 0 3 5 4 0 0 0 0 0 0 0 50 49 51 73 73 78 82 94 84 78 73 71 66 70 67 57 45 10 2 0 0 0 0 0
1659 1726 1774 1806 1858 1894 1915 1900 1904 1919 1943 1964 1979 1987 1970 1919 1872 1844 1822 1816 1780 1718 1615 1516 1483 1442 1430 1429 1447 1461 1403 1207 1026 843 645 523 451 169 0 0 0 0 0 0 0 0 0 0 0 0 0 4 3 2 0 0 0 0 0 0 0 39 47 56 67 85 84 83 94 98 96 84 84 88 89 79 74 63 4 0 0 0 0 0 0
1738 1814 1853 1883 1911 1944 1976 1990 1991 1996 2004 2014 2021 2019 2030 1995 1955 1934 1904 1852 1838 1763 1678 1582 1460 1448 1409 1380 1355 1328 1269 1149 978 728 548 536 461 0 0 0 0 0 0 0 0 0 0 0 0 0 0 1 2 1 0 0 0 0 0 0 37 55 64 70 72 71 81 90 101 123 115 103 93 83 81 77 70 76 79 73 25 0 0 0 0
1876 1916 1962 2008 2010 2030 2046 2062 2067 2062 2080 2084 2080 2085 2086 2055 2022 2003 1964 1932 1874 1805 1740 1652 1550 1443 1419 1362 1318 1267 1178 1098 1021 862 704 467 0 0 0 0 0 0 0 0 0 0 0 0 0 0 0 0 1 0 0 0 0 0 76 80 81 83 93 97 93 101 117 128 130 122 108 103 93 93 88 97 107 97 64 4 4 3 0 0 4
2005 2047 2093 2116 2128 2131 2131 2144 2138 2142 2147 2148 2153 2166 2151 2129 2102 2052 2017 1985 1934 1842 1749 1667 1600 1502 1435 1398 1368 1316 1239 1144 1092 1025 808 405 0 0 0 376 0 0 0 66 174 0 0 0 0 0 0 0 0 0 0 0 0 8 92 62 123 120 117 116 115 126 138 118 97 110 99 87 88 108 113 121 134 96 60 70 33 4 3 0 0
2148 2207 2224 2256 2249 2226 2225 2220 2235 2232 2220 2198 2209 2215 2213 2194 2148 2105 2082 2043 1985 1918 1807 1696 1610 1551 1512 1484 1456 1415 1362 1287 1213 1146 992 718 626 585 485 480 300 313 353 238 181 96 0 0 0 0 0 61 129 32 0 0 49 112 108 105 104 93 95 132 136 142 145 130 140 134 116 101 109 117 133 138 125 103 114 108 84 18 0 0 0
2256 2315 2357 2378 2360 2342 2319 2308 2306 2319 2304 2286 2268 2267 2274 2256 2206 2165 2142 2122 2093 2032 1930 1820 1723 1650 1611 1579 1543 1502 1470 1418 1340 1256 1160 1011 887 801 603 587 504 472 359 254 180 0 0 1 4 142 290 533 638 519 156 148 109 63 119 154 151 102 95 124 131 148 170 159 113 86 65 81 97 120 142 132 156 139 105 82 0 0 0 0 0
2329 2409 2465 2467 2461 2445 2427 2398 2367 2363 2368 2361 2361 2350 2317 2287 2256 2238 2214 2206 2181 2148 2068 1969 1881 1828 1765 1700 1621 1576 1568 1545 1438 1326 1212 1133 1048 960 751 653 603 628 586 382 0 0 0 0 0 174 650 903 786 831 530 373 230 274 257 218 190 178 114 108 109 73 62 50 56 39 47 83 155 142 159 202 153 84 0 0 0 0 0 0 0
2379 2474 2533 2543 2547 2553 2527 2486 2440 2414 2410 2426 2428 2409 2377 2332 2301 2284 2264 2229 2223 2217 2171 2074 1992 1927 1874 1827 1772 1732 1712 1651 1524 1388 1296 1230 1210 1102 966 859 706 686 698 466 193 292 296 332 252 1 72 358 403 720 870 648 386 301 265 229 251 225 158 53 56 70 80 47 59 52 113 153 152 231 244 140 67 0 0 0 0 0 0 0 0
2385 2485 2552 2603 2616 2626 2614 2578 2529 2493 2472 2468 2459 2449 2420 2384 2354 2322 2293 2267 2249 2235 2202 2139 2078 2016 1944 1888 1857 1870 1864 1774 1635 1446 1368 1357 1348 1294 1194 1070 893 859 864 768 512 164 129 424 195 11 14 427 535 380 512 767 850 543 470 343 293 196 87 71 71 99 94 90 60 138 156 181 262 233 141 80 92 99 133 143 50 0 0 56 0
2375 2468 2544 2607 2661 2678 2666 2646 2631 2597 2549 2508 2498 2490 2438 2425 2391 2359 2326 2285 2267 2231 2185 2159 2124 2057 1978 1933 1908 1870 1841 1796 1690 1570 1489 1432 1385 1247 1002 1038 1126 892 864 723 596 329 306 299 273 70 0 70 274 320 313 344 530 587 461 359 284 270 234 83 121 135 92 110 163 161 311 291 158 132 114 111 110 99 18 0 0 0 0 0 0
2319 2449 2516 2591 2676 2722 2718 2705 2696 2672 2620 2579 2554 2503 2453 2456 2434 2401 2355 2320 2284 2242 2197 2172 2139 2078 2002 1927 1894 1878 1846 1810 1731 1675 1618 1556 1486 1338 1108 865 931 733 695 660 501 375 227 258 290 81 0 0 18 227 286 340 368 397 352 242 246 240 203 155 100 79 191 363 482 542 379 171 101 98 63 0 0 1 0 0 0 0 0 0 0
2225 2363 2460 2554 2649 2718 2750 2748 2736 2705 2676 2647 2594 2535 2480 2450 2455 2442 2398 2347 2294 2245 2191 2151 2114 2080 2032 1985 1954 1948 1903 1863 1802 1757 1698 1622 1514 1455 1230 1172 971 839 746 387 107 99 210 296 57 160 73 78 10 256 332 340 373 380 308 274 286 257 318 464 550 536 563 555 429 248 183 73 26 32 21 3 0 0 0 4 0 0 0 0 0
2094 2247 2379 2499 2601 2695 2749 2754 2738 2728 2708 2684 2637 2568 2512 2486 2455 2423 2401 2356 2328 2265 2200 2149 2136 2126 2096 2069 2050 2012 1979 1936 1901 1840 1773 1678 1609 1532 1473 1441 1251 1200 998 868 432 331 179 0 0 0 0 0 22 219 323 358 405 377 325 291 177 216 397 385 419 392 345 296 248 168 27 0 0 0 0 0 0 0 0 0 0 0 0 0 0
2017 2155 2321 2457 2572 2664 2736 2757 2746 2733 2723 2710 2686 2626 2587 2549 2514 2456 2421 2364 2333 2312 2241 2202 2179 2178 2143 2118 2085 2041 2046 2027 1995 1947 1861 1785 1662 1688 1493 1428 1468 1312 888 659 358 364 295 60 21 0 83 120 0 226 327 395 433 319 0 0 195 262 349 452 401 372 358 277 131 0 0 0 0 0 0 0 0 0 0 0 0 0 0 0 0
2006 2091 2250 2386 2503 2622 2705 2765 2764 2744 2749 2735 2702 2668 2628 2616 2578 2515 2456 2395 2388 2321 2268 2241 2239 2210 2196 2193 2140 2106 2091 2055 2032 1994 1953 1946 1910 1717 1513 1432 1177 1256 930 657 421 0 0 179 374 24 0 0 53 278 371 487 540 468 420 384 414 454 525 465 465 413 230 33 0 0 0 0 0 0 0 0 0 0 0 0 0 0 0 0 0
1976 2059 2160 2268 2384 2530 2672 2765 2795 2776 2759 2735 2705 2676 2635 2627 2628 2572 2521 2477 2437 2367 2317 2300 2252 2220 2226 2229 2192 2187 2167 2139 2145 2178 2250 2241 2149 1933 1703 1325 1262 1150 994 699 484 319 110 4 175 6 0 0 262 378 510 587 437 110 0 132 469 595 305 433 340 124 0 0 0 0 0 0 0 0 0 0 0 14 2 0 0 0 0 0 0
2008 2060 2110 2157 2258 2403 2592 2718 2797 2806 2766 2721 2690 2664 2643 2654 2630 2589 2548 2528 2479 2443 2393 2325 2249 2214 2229 2238 2202 2201 2198 2248 2304 2373 2453 2413 2371 2181 1735 1639 1351 1122 826 562 391 340 282 0 5 124 296 328 453 576 641 461 203 0 234 441 481 404 485 275 46 0 0 0 0 0 0 0 0 0 0 0 0 0 0 0 0 0 0 0 0
2089 2109 2140 2164 2199 2276 2417 2582 2724 2787 2768 2697 2656 2672 2671 2628 2649 2600 2566 2546 2518 2483 2442 2384 2302 2239 2248 2254 2197 2204 2240 2299 2419 2556 2616 2618 2565 2530 1775 1583 1498 1163 812 589 404 175 0 0 0 210 392 467 584 665 639 519 377 458 618 502 491 543 355 18 0 0 0 0 0 0 0 0 0 0 0 0 0 0 0 0 0 0 0 0 0
2169 2158 2154 2146 2154 2188 2271 2437 2615 2713 2739 2715 2670 2665 2666 2666 2681 2656 2615 2572 2562 2526 2474 2424 2354 2323 2338 2323 2301 2331 2374 2504 2656 2768 2784 2726 2768 2583 1974 1421 1239 1043 803 584 430 0 0 0 0 334 467 604 654 658 587 521 654 780 850 777 667 249 0 0 0 0 0 0 0 0 0 0 0 0 0 0 0 0 0 0 0 0 0 0 0
2294 2288 2272 2271 2253 2254 2266 2306 2472 2577 2660 2680 2685 2678 2657 2674 2690 2694 2677 2645 2608 2568 2538 2473 2436 2451 2482 2464 2484 2560 2616 2685 2701 2307 2212 1731 1769 2050 2002 1738 1002 915 789 632 530 502 0 0 404 504 593 622 596 622 677 756 776 816 805 656 334 0 0 0 0 0 0 0 0 0 0 0 0 0 0 0 0 0 0 0 0 0 0 0 0
2349 2362 2377 2367 2358 2348 2342 2342 2350 2492 2573 2640 2672 2681 2698 2695 2712 2736 2727 2677 2653 2612 2546 2520 2498 2516 2549 2594 2667 2742 2812 2746 2625 2118 1716 1517 1530 1654 1761 1007 970 896 766 642 533 0 0 118 528 566 570 499 550 594 629 665 722 643 398 232 0 0 0 0 0 0 0 0 0 0 0 0 0 0 0 0 0 0 0 0 0 0 0 0 0
2296 2387 2425 2449 2484 2470 2430 2401 2382 2348 2447 2563 2670 2716 2735 2757 2747 2744 2736 2717 2691 2627 2554 2502 2523 2584 2646 2703 2779 2802 2737 2593 2447 1790 1308 1160 1262 1390 1188 890 898 850 658 377 0 0 0 392 490 480 170 0 0 0 485 633 428 19 0 0 0 0 0 0 0 0 0 0 0 0 0 0 0 0 0 0 0 0 0 0 0 0 0 0 0
2762 2401 2301 2381 2428 2428 2376 2381 2366 2332 2318 2481 2616 2720 2799 2823 2784 2752 2752 2747 2693 2628 2577 2497 2532 2649 2624 2599 2611 2763 2745 2672 2131 1159 1079 1014 1204 1378 726 768 743 612 389 0 0 0 0 0 0 0 0 0 0 115 552 400 0 0 0 0 0 0 0 0 0 0 0 0 0 0 0 0 0 0 0 0 0 0 0 0 0 0 0 0 0
3215 3125 2981 2707 2313 2293 2318 2289 2292 2304 2407 2545 2593 2674 2771 2845 2835 2779 2774 2728 2612 2528 2518 2580 2594 2605 2362 2239 2537 2635 2901 2662 1229 802 758 818 1136 938 465 467 453 205 0 0 0 0 0 0 0 0 0 0 198 416 415 182 0 0 0 0 0 0 0 0 0 0 0 0 0 0 0 0 0 0 0 0 0 0 0 0 0 0 0 0 0
3564 3468 3374 3285 3175 2966 2652 2331 2228 2203 2392 2522 2602 2710 2773 2827 2858 2777 2694 2625 2516 2462 2412 2612 2643 2481 2000 1949 2382 2755 2642 1270 816 773 727 795 664 458 404 229 0 0 0 0 0 0 0 0 0 0 280 285 301 281 154 91 64 0 0 0 0 0 0 0 0 0 0 0 0 0 0 0 0 0 0 0 0 0 0 0 0 0 0 0 0
3697 3555 3366 3193 2975 2620 2248 2054 2082 2146 2256 2329 2514 2630 2690 2774 2756 2682 2564 2515 2492 2446 2441 2485 2613 2124 1866 2406 2372 2536 1053 660 695 676 780 712 355 194 0 0 0 0 0 0 0 0 0 0 185 280 289 265 185 117 96 50 52 0 0 0 0 0 0 0 0 0 0 0 0 0 1 3 0 0 0 0 0 0 0 0 0 0 0 0 0
2654 2772 2610 2353 2218 2054 1853 1822 1947 2075 2212 2384 2391 2421 2514 2627 2620 2569 2488 2525 2413 2446 2413 2528 2248 1616 2129 2672 2136 1167 920 744 632 675 619 364 0 0 400 306 0 0 0 0 0 0 0 127 195 214 195 129 89 4 104 106 108 11 0 0 0 0 0 0 0 0 0 0 0 13 21 11 1 0 0 0 0 0 0 0 0 0 0 0 0
2914 2849 2702 2535 2404 2294 2182 2170 2117 2252 2412 2549 2532 2405 2470 2460 2508 2500 2495 2487 2403 2246 2335 2274 1919 2162 2106 1262 964 1158 911 578 503 442 290 0 0 0 79 139 0 0 0 0 0 0 0 57 125 112 94 54 0 103 117 118 100 0 0 0 0 0 0 0 0 0 0 0 5 11 8 1 0 0 0 0 0 0 0 0 0 0 0 0 0
3097 3199 3027 2756 2570 2514 2583 2626 2744 2782 2602 2313 2333 2520 2460 2404 2338 2306 2361 2287 2174 1959 1893 1697 1516 1413 870 713 798 816 607 378 0 0 0 0 0 0 0 0 0 0 0 0 0 0 39 88 89 91 90 102 108 107 112 103 35 0 0 0 0 0 0 0 0 0 0 0 2 1 2 2 1 0 0 0 0 0 0 0 0 0 0 0 0
2534 2756 2846 2836 2844 2792 2644 2596 2641 2570 2353 2477 2413 2457 2428 2224 2181 2207 2205 1936 1549 1360 1163 1225 1164 890 744 690 610 488 328 0 0 0 0 0 0 0 0 0 0 0 0 0 0 0 0 77 102 100 92 83 80 81 83 54 0 0 0 0 0 0 0 0 0 0 0 0 0 0 2 1 1 0 0 0 0 0 0 0 0 0 0 0 0
2093 2116 1908 1943 2120 2146 2313 2384 2713 2465 2292 2019 1827 1859 1977 2104 2103 1729 1927 1384 1142 966 907 763 750 730 531 413 333 85 0 0 0 0 0 0 0 0 0 0 0 0 0 0 0 0 0 0 0 0 0 0 33 40 45 0 0 0 0 0 0 0 0 0 0 0 0 0 1 2 1 0 0 0 0 0 0 0 0 0 0 0 0 0 0
995 891 854 762 669 760 1143 1131 1317 1052 872 1056 1231 1614 1971 1763 904 1110 1073 1073 1023 1036 736 543 568 505 366 305 44 0 0 0 0 0 0 0 0 0 0 0 0 0 14 7 0 0 0 0 0 0 0 0 0 25 0 0 0 0 0 0 0 0 0 0 0 0 1 1 1 0 0 0 0 0 0 0 0 0 0 0 0 0 0 0 0
985 1070 884 729 678 292 275 692 853 640 866 733 642 710 1069 1239 1245 1389 1270 1086 961 740 536 378 338 321 283 236 93 0 0 0 0 0 0 0 0 0 0 0 0 0 0 0 0 0 0 0 0 0 0 0 0 0 0 0 0 0 0 0 0 0 0 0 0 0 0 0 0 0 0 0 0 0 0 0 0 0 0 0 0 0 0 0 0
869 504 424 561 916 968 890 986 942 1014 1016 1232 1152 1392 1311 1123 902 834 1098 924 629 311 218 240 176 157 208 151 0 0 0 0 0 0 0 0 0 0 0 0 0 0 0 0 0 0 0 0 0 0 0 0 0 0 0 0 0 0 0 0 0 0 0 0 0 0 0 0 0 0 0 0 0 0 0 0 0 0 0 0 0 0 0 0 0
900 812 367 64 380 386 712 1324 1398 1481 1576 1641 1406 1131 1550 1395 1154 946 651 399 291 256 238 64 0 0 6 0 0 0 0 0 0 0 0 0 0 0 0 0 0 0 0 0 0 0 0 0 0 0 0 0 0 0 0 0 0 0 0 0 0 0 0 0 0 0 0 0 0 0 0 0 0 0 0 0 0 0 0 0 0 0 0 0 0
888 832 850 630 176 209 542 1083 1282 1300 1361 929 1081 1039 964 770 551 400 301 244 348 286 241 212 175 142 0 0 0 0 0 0 0 0 0 0 0 0 0 0 0 0 0 0 0 0 0 0 0 0 0 0 0 0 0 0 0 0 0 0 0 0 0 0 0 0 0 0 0 0 0 0 0 0 0 0 0 0 0 0 0 0 0 0 0
1117 1092 1122 855 602 546 582 328 676 1399 1531 1595 1448 1044 748 791 730 538 405 522 410 242 170 90 88 85 61 50 0 0 0 0 170 151 0 0 0 0 0 0 0 0 0 0 0 0 0 0 0 0 0 0 0 0 0 0 0 0 0 0 0 0 0 0 0 0 0 0 0 0 0 0 0 0 0 0 0 0 0 0 0 0 0 0 0
1124 1180 1106 1035 968 798 771 986 689 943 1086 1179 1126 797 741 1101 809 492 521 460 130 52 39 34 0 167 114 88 15 0 21 117 307 218 42 97 107 92 26 15 0 21 62 11 0 0 0 0 0 0 0 0 0 0 0 0 0 0 0 0 0 0 0 0 0 0 0 0 0 0 0 0 0 0 0 0 0 0 0 0 0 0 0 0 0
772 804 881 960 1110 980 1019 968 826 936 1106 1244 1076 1140 1146 1023 789 483 300 215 382 406 354 242 213 82 134 5 0 147 150 265 301 200 160 148 156 159 179 210 202 179 109 0 0 0 0 0 0 0 0 0 0 0 0 0 0 0 0 0 0 0 0 0 0 0 0 0 0 0 0 0 0 0 0 0 0 0 0 0 0 0 0 0 0
426 569 704 869 895 1015 997 909 991 1043 1028 997 1077 1165 1148 1009 816 525 482 490 351 318 178 212 211 252 132 0 0 48 145 194 238 232 214 196 195 217 246 239 189 73 0 0 0 0 0 0 0 0 0 0 0 0 0 0 0 0 0 0 0 0 0 0 0 0 0 0 0 0 0 0 0 0 0 0 0 0 0 0 0 0 0 0 0
0 338 541 775 941 993 949 826 831 916 754 691 810 863 907 909 752 776 564 454 243 176 199 0 181 127 0 0 0 0 20 163 199 224 200 181 196 225 217 122 0 0 0 0 0 0 0 0 0 0 0 0 0 0 0 0 0 0 0 0 0 0 0 0 0 0 0 0 0 0 0 0 0 0 0 0 0 0 0 0 0 0 0 0 0
336 412 304 450 555 705 803 822 712 657 591 390 573 575 667 640 592 593 570 577 432 323 324 311 188 0 0 0 0 0 0 0 0 81 82 38 0 0 0 0 0 0 0 0 0 0 0 0 0 0 0 0 0 0 0 0 0 0 0 0 0 0 0 0 0 0 0 0 0 0 0 0 0 0 0 0 0 0 0 0 0 0 0 0 0
0 5 165 223 256 335 468 609 471 210 406 558 654 726 664 590 590 583 538 527 462 332 243 186 0 0 0 0 0 0 0 0 0 0 0 0 0 0 0 0 0 0 0 0 0 0 0 0 0 0 0 0 0 0 0 0 0 0 0 3 8 2 0 0 0 0 0 0 0 0 0 0 0 0 0 0 0 0 0 0 0 0 0 0 0
0 0 0 0 0 202 168 38 239 281 289 543 596 674 730 720 644 615 566 477 351 191 62 59 56 0 85 122 22 0 0 0 0 0 0 0 0 0 0 0 0 0 0 0 0 0 0 0 0 0 0 0 0 0 0 0 0 0 8 10 0 0 0 0 0 0 0 0 0 0 0 0 0 0 0 0 0 0 0 0 0 0 0 0 0
0 0 0 0 0 0 119 248 0 209 237 304 484 573 642 644 574 491 482 424 205 146 134 138 147 149 101 0 0 0 0 0 0 0 0 0 0 0 0 0 0 0 0 0 0 0 0 0 0 0 0 0 0 0 0 0 0 0 0 0 0 0 0 0 0 0 0 0 0 0 0 0 0 0 0 0 0 0 0 0 0 0 0 0 0
0 0 0 0 0 0 0 52 16 11 26 69 116 55 88 124 148 149 248 253 155 186 170 149 112 0 0 0 0 0 0 0 0 0 0 0 0 0 0 0 0 0 0 0 0 0 0 0 0 0 0 0 0 0 0 0 6 5 0 0 0 0 0 0 0 0 0 0 0 0 0 0 0 0 0 0 0 0 0 0 0 0 0 0 0
33 0 0 0 3 2 0 0 0 0 0 0 10 23 45 12 1 53 97 54 0 46 78 36 0 0 0 0 0 0 0 0 0 0 11 58 76 73 0 0 0 0 0 0 0 0 0 0 0 0 0 0 0 8 14 16 15 0 0 0 0 0 0 0 0 0 0 0 0 0 0 0 0 0 0 0 0 0 0 0 0 0 0 0 0
Wind_Speed
19 19 18 17 17 16 15 16 18 20 21 20 20 19 21 22 21 20 22 17 15 12 13 14 15 14 13 13 13 14 15 15 17 18 19 nan nan nan nan nan nan nan nan nan nan nan nan nan nan nan nan nan nan nan nan nan nan nan nan nan nan nan nan nan nan nan nan nan nan nan nan nan nan nan nan nan nan nan nan nan nan nan nan nan nan
18 18 17 17 18 17 17 17 18 21 21 20 19 20 22 22 22 22 19 15 13 12 14 16 16 14 13 13 13 15 16 17 18 19 19 nan nan nan nan nan nan nan nan nan nan nan nan nan nan nan nan nan nan nan nan nan nan nan nan nan nan nan nan nan nan nan nan nan nan nan nan nan nan nan nan nan nan nan nan nan nan nan nan nan nan
17 17 17 18 18 17 17 18 19 21 21 19 18 19 21 22 23 19 17 15 14 14 15 16 15 14 12 13 14 15 17 18 19 19 20 22 nan nan nan nan nan nan nan nan nan nan nan nan nan nan nan nan nan nan nan nan nan nan nan nan nan nan nan nan nan nan nan nan nan nan nan nan nan nan nan nan nan nan nan nan nan nan nan nan nan
15 16 16 17 17 18 18 18 19 20 19 17 15 18 21 22 22 18 16 16 15 15 17 16 16 14 13 13 14 14 16 18 19 20 21 23 23 nan nan nan nan nan nan nan nan nan nan nan nan nan nan nan nan nan nan nan nan nan nan nan nan nan nan nan nan nan nan nan nan nan nan nan nan nan nan nan nan nan nan nan nan nan nan nan nan
14 15 16 17 18 18 18 18 18 18 16 15 14 17 20 22 21 16 16 16 16 17 17 16 15 14 13 13 13 13 15 18 20 20 20 21 23 25 nan nan nan nan nan nan nan nan nan nan nan nan nan nan nan nan nan nan nan nan nan nan nan nan nan nan nan nan nan nan nan nan nan nan nan nan nan nan nan nan nan nan nan nan nan nan nan
15 16 17 17 18 18 18 18 17 17 15 13 14 17 21 22 20 16 15 15 18 17 16 15 14 12 12 12 12 13 15 18 19 20 20 21 23 nan nan nan nan nan nan nan nan nan nan nan nan nan nan nan nan nan nan nan nan nan nan nan nan nan nan nan nan nan nan nan 27 25 29 29 nan nan nan nan nan nan nan nan nan nan nan nan nan
16 17 18 18 18 19 19 18 17 15 13 14 18 21 22 22 18 15 17 17 18 18 16 14 13 12 11 11 11 14 15 16 17 18 19 22 nan nan nan nan nan nan nan nan nan nan nan nan nan nan nan nan nan nan nan nan nan nan nan nan nan nan nan nan nan 29 28 26 25 27 27 30 nan nan nan nan 35 nan nan nan nan nan nan nan nan
17 18 19 19 19 20 19 19 18 16 14 17 21 24 24 21 17 18 20 18 17 17 16 14 13 11 10 10 12 13 14 15 17 19 21 25 nan nan nan 32 nan nan nan nan 29 nan nan nan nan nan nan nan nan nan nan nan nan nan nan nan 29 29 29 29 30 30 29 28 nan 27 nan nan nan 36 37 39 38 nan nan nan nan nan nan nan nan
18 20 21 20 20 20 19 19 19 19 17 19 22 26 26 20 19 21 20 18 19 17 16 14 13 11 10 11 12 12 13 15 18 22 25 28 31 33 33 33 34 33 32 33 30 nan nan nan nan nan nan nan 33 nan nan nan nan 29 29 30 30 nan nan 30 31 31 30 30 28 30 31 31 33 36 35 38 39 37 40 43 nan nan nan nan nan
18 20 20 21 20 20 20 21 22 23 21 20 22 27 28 23 22 22 20 18 18 18 17 14 12 11 11 11 11 12 13 14 19 27 29 30 33 34 34 33 32 33 37 34 29 nan nan nan nan 31 32 33 36 37 36 34 32 nan 30 31 31 31 nan 33 33 34 33 31 30 nan nan nan nan 37 39 40 40 41 41 nan nan nan nan nan nan
19 19 19 19 20 21 21 22 24 25 24 22 24 29 30 27 25 23 21 19 19 19 18 14 12 13 13 13 13 13 13 14 22 26 30 35 36 38 39 35 33 37 39 36 nan nan nan nan nan 27 29 33 33 34 33 32 31 30 30 32 33 35 36 36 35 nan nan nan nan nan nan nan 36 41 42 41 43 nan nan nan nan nan nan nan nan
20 19 17 18 21 22 23 25 26 26 27 26 25 29 33 30 26 24 22 19 20 22 18 15 15 16 16 16 15 15 14 16 23 27 32 36 39 41 42 37 36 37 35 31 26 26 28 31 32 nan nan 30 30 28 29 30 29 29 29 32 35 38 40 nan nan nan nan nan nan nan 42 42 41 43 44 46 nan nan nan nan nan nan nan nan nan
21 19 19 21 22 23 24 26 27 27 28 30 29 30 33 32 28 26 23 21 24 22 19 19 18 19 19 18 16 15 14 18 23 28 32 36 40 46 46 41 37 37 34 30 27 26 29 34 34 nan nan 29 28 27 27 27 28 30 31 34 37 39 nan nan nan nan nan nan nan 40 45 46 44 44 48 nan nan nan 47 46 nan nan nan nan nan
24 22 22 23 24 25 26 26 27 27 29 32 33 31 31 31 30 29 28 28 25 23 22 21 21 21 21 20 19 17 16 18 23 27 31 35 40 47 47 41 33 32 30 29 28 28 32 36 34 nan nan nan 27 28 28 28 30 32 34 37 40 40 42 nan 42 44 nan 44 46 44 45 50 46 46 48 50 49 nan nan nan nan nan nan nan nan
27 25 24 26 28 29 30 28 27 27 29 32 33 31 29 31 33 33 32 30 27 25 24 23 22 23 23 23 22 19 16 20 24 27 30 36 44 46 44 43 36 36 34 31 29 30 34 36 34 nan nan nan nan 31 31 32 34 36 39 40 41 41 42 44 44 nan 45 46 47 47 46 48 47 nan nan nan nan nan nan nan nan nan nan nan nan
28 27 27 29 31 32 32 31 29 28 29 31 31 30 29 31 33 34 33 32 30 30 28 25 24 24 25 25 23 20 18 23 25 28 32 39 48 44 46 44 37 37 37 34 32 nan 36 38 nan 32 nan nan nan 37 36 37 39 40 41 42 42 43 44 44 46 47 48 49 49 48 48 nan nan nan nan nan nan nan nan nan nan nan nan nan nan
29 30 29 31 32 33 32 33 31 30 29 29 29 29 30 30 32 37 35 33 33 32 29 27 26 27 26 26 25 21 19 24 27 30 35 46 48 44 44 41 37 37 36 34 36 38 39 nan nan nan nan nan nan 40 40 44 42 43 42 42 44 45 46 46 49 52 52 52 51 50 nan nan nan nan nan nan nan nan nan nan nan nan nan nan nan
31 30 30 29 30 32 32 33 32 31 30 28 27 27 28 29 31 36 35 34 33 32 32 29 29 29 30 28 26 23 21 26 30 32 41 48 50 47 41 37 35 37 36 33 36 39 40 nan nan nan nan 37 nan 41 43 44 42 43 nan nan 45 46 47 47 47 47 49 51 52 nan nan nan nan nan nan nan nan nan nan nan nan nan nan nan nan
34 31 27 25 26 28 31 32 32 31 29 27 27 27 27 28 31 35 35 34 33 35 35 33 32 33 33 31 28 26 25 29 32 36 44 49 50 49 46 40 38 39 37 35 37 nan nan 40 44 nan nan nan nan 42 45 43 43 43 44 44 44 44 46 48 48 49 49 nan nan nan nan nan nan nan nan nan nan nan nan nan nan nan nan nan nan
37 33 28 27 28 29 30 30 30 31 29 28 28 28 28 29 31 34 35 36 36 37 36 37 37 36 37 36 32 29 30 35 35 40 46 49 51 49 46 42 38 37 36 35 38 40 41 nan 43 nan nan nan 44 48 47 45 43 42 nan 44 43 42 45 48 50 53 nan nan nan nan nan nan nan nan nan nan nan nan nan nan nan nan nan nan nan
40 36 33 33 34 33 31 30 29 29 29 29 29 31 32 31 31 33 35 39 40 39 39 41 41 41 42 41 37 35 36 39 41 45 48 52 54 54 41 42 38 37 36 37 40 42 43 nan nan 43 44 45 48 48 46 46 44 nan 43 45 45 45 50 50 nan nan nan nan nan nan nan nan nan nan nan nan nan nan nan nan nan nan nan nan nan
41 39 38 37 36 35 34 31 29 29 31 34 34 33 34 34 33 33 36 40 43 44 46 48 49 50 50 46 43 41 43 46 49 46 52 56 54 49 41 37 37 37 37 38 40 42 nan nan nan 42 45 46 47 45 44 45 44 43 44 47 51 54 52 nan nan nan nan nan nan nan nan nan nan nan nan nan nan nan nan nan nan nan nan nan nan
43 42 43 43 41 40 40 39 36 34 34 35 36 36 39 39 37 36 38 41 46 50 51 52 51 51 52 50 48 50 53 53 56 54 53 55 48 41 40 37 39 38 39 40 40 nan nan nan nan 44 45 45 46 46 46 46 45 44 49 51 53 54 nan nan nan nan nan nan nan nan nan nan nan nan nan nan nan nan nan nan nan nan nan nan nan
48 48 47 44 43 43 45 46 46 42 38 40 40 41 42 41 42 41 41 44 49 52 53 55 54 53 54 55 58 60 59 62 61 57 58 51 43 37 36 38 42 38 40 40 41 44 nan nan 40 43 45 46 46 46 47 47 44 48 50 51 52 nan nan nan nan nan nan nan nan nan nan nan nan nan nan nan nan nan nan nan nan nan nan nan nan
51 52 52 52 52 52 53 53 54 52 48 46 44 44 42 43 44 46 48 50 52 53 52 52 53 54 58 61 64 64 63 64 63 61 59 51 41 34 33 37 42 45 41 39 42 nan nan 40 42 44 45 46 47 47 44 44 47 48 49 50 nan nan nan nan nan nan nan nan nan nan nan nan nan nan nan nan nan nan nan nan nan nan nan nan nan
55 54 56 57 57 58 57 57 59 60 59 52 46 44 42 42 45 50 53 55 56 55 53 52 53 56 60 65 67 67 66 66 63 60 58 54 40 30 34 35 40 42 41 40 nan nan nan 38 42 45 46 nan nan nan 41 41 45 nan nan nan nan nan nan nan nan nan nan nan nan nan nan nan nan nan nan nan nan nan nan nan nan nan nan nan nan
57 57 58 59 60 59 58 59 61 62 63 60 55 52 50 48 50 51 53 56 57 57 57 56 57 61 65 65 68 69 69 69 67 63 61 52 39 33 34 31 35 38 37 nan nan nan nan nan nan nan nan nan nan 42 42 45 nan nan nan nan nan nan nan nan nan nan nan nan nan nan nan nan nan nan nan nan nan nan nan nan nan nan nan nan nan
55 55 58 60 61 61 59 59 61 61 62 65 67 67 62 56 52 49 48 52 57 58 60 62 65 69 70 68 68 70 73 73 69 66 61 52 40 37 37 35 37 37 nan nan nan nan nan nan nan nan nan nan 39 39 39 40 nan nan nan nan nan nan nan nan nan nan nan nan nan nan nan nan nan nan nan nan nan nan nan nan nan nan nan nan nan
49 51 54 58 60 63 65 65 62 61 65 67 68 65 60 55 52 48 45 49 54 58 66 75 78 74 70 68 68 69 73 71 66 68 66 55 45 44 40 37 nan nan nan nan nan nan nan nan nan nan 38 38 38 38 38 nan nan nan nan nan nan nan nan nan nan nan nan nan nan nan nan nan nan nan nan nan nan nan nan nan nan nan nan nan nan
50 52 55 59 66 71 74 76 76 73 70 69 67 64 65 63 57 54 54 61 66 70 75 79 77 71 67 60 61 66 64 66 75 80 75 61 51 50 nan nan nan nan nan nan nan nan nan nan 37 38 37 36 37 38 nan nan nan nan nan nan nan nan nan nan nan nan nan nan nan nan nan nan nan nan nan nan nan nan nan nan nan nan nan nan nan
51 53 59 61 65 70 73 75 73 72 71 70 67 68 68 64 65 67 59 61 72 75 79 83 85 82 75 65 59 58 66 74 77 77 73 65 nan nan 46 46 nan nan nan nan nan nan nan 37 36 34 35 35 nan nan 37 36 33 nan nan nan nan nan nan nan nan nan nan nan nan nan nan nan nan nan nan nan nan nan nan nan nan nan nan nan nan
56 58 60 61 65 67 70 74 74 72 70 67 67 68 71 70 69 71 78 70 73 83 83 83 82 83 84 85 80 72 69 71 74 72 69 nan nan nan nan 48 nan nan nan nan nan nan nan nan 35 33 nan nan nan 35 35 33 32 nan nan nan nan nan nan nan nan nan nan nan nan nan nan nan nan nan nan nan nan nan nan nan nan nan nan nan nan
59 62 63 63 66 68 72 76 76 74 74 72 69 70 70 71 72 72 72 82 82 73 69 74 79 82 87 90 88 81 73 70 nan nan nan nan nan nan nan nan nan nan nan nan nan nan nan nan nan nan nan 34 34 34 33 32 nan nan nan nan nan nan nan nan nan nan nan nan nan nan nan nan nan nan nan nan nan nan nan nan nan nan nan nan nan
65 68 68 68 70 72 75 78 79 77 76 72 67 66 66 65 70 74 71 66 67 65 66 70 74 82 89 92 92 92 86 nan nan nan nan nan nan nan nan nan nan nan nan nan nan nan nan nan 32 nan nan nan nan nan nan nan nan nan nan nan nan nan nan nan nan nan nan nan nan nan nan nan nan nan nan nan nan nan nan nan nan nan nan nan nan
63 67 69 68 72 72 74 76 78 79 76 74 70 67 64 59 60 64 64 65 65 62 58 61 65 66 74 83 89 nan nan nan nan nan nan nan nan nan nan nan nan nan nan nan nan nan nan nan nan nan nan nan nan nan nan nan nan nan nan nan nan nan nan nan nan nan nan nan nan nan nan nan nan nan nan nan nan nan nan nan nan nan nan nan nan
59 59 58 59 61 63 59 61 63 63 63 65 68 68 61 50 50 56 60 66 66 58 50 53 59 61 69 73 nan nan nan nan nan nan nan nan nan nan nan nan nan nan nan nan nan nan nan nan nan nan nan nan nan nan nan nan nan nan nan nan nan nan nan nan nan nan nan nan nan nan nan nan nan nan nan nan nan nan nan nan nan nan nan nan nan
57 55 54 49 43 40 39 42 47 51 52 55 60 64 61 53 49 52 54 58 60 52 41 37 43 46 46 45 nan nan nan nan nan nan nan nan nan nan nan nan nan nan nan nan nan nan nan nan nan nan nan nan nan nan nan nan nan nan nan nan nan nan nan nan nan nan nan nan nan nan nan nan nan nan nan nan nan nan nan nan nan nan nan nan nan
52 54 50 36 25 24 27 35 45 53 56 58 59 61 61 58 55 53 52 53 54 50 37 26 24 25 27 28 nan nan nan nan nan nan nan nan nan nan nan nan nan nan nan nan nan nan nan nan nan nan nan nan nan nan nan nan nan nan nan nan nan nan nan nan nan nan nan nan nan nan nan nan nan nan nan nan nan nan nan nan nan nan nan nan nan
42 48 46 nan 25 19 17 24 35 44 48 48 45 46 49 50 48 46 41 37 36 33 27 nan nan nan nan nan nan nan nan nan nan nan nan nan nan nan nan nan nan nan nan nan nan nan nan nan nan nan nan nan nan nan nan nan nan nan nan nan nan nan nan nan nan nan nan nan nan nan nan nan nan nan nan nan nan nan nan nan nan nan nan nan nan
36 34 32 32 27 27 22 21 19 22 26 27 27 29 31 32 35 35 30 27 25 24 24 26 28 29 nan nan nan nan nan nan nan nan nan nan nan nan nan nan nan nan nan nan nan nan nan nan nan nan nan nan nan nan nan nan nan nan nan nan nan nan nan nan nan nan nan nan nan nan nan nan nan nan nan nan nan nan nan nan nan nan nan nan nan
29 29 28 28 29 28 25 21 21 23 17 16 17 19 21 22 26 27 27 24 24 25 25 nan nan nan nan nan nan nan nan nan 32 31 nan nan nan nan nan nan nan nan nan nan nan nan nan nan nan nan nan nan nan nan nan nan nan nan nan nan nan nan nan nan nan nan nan nan nan nan nan nan nan nan nan nan nan nan nan nan nan nan nan nan nan
26 24 25 25 26 22 18 14 12 13 13 12 16 18 22 22 23 24 23 21 24 nan nan nan nan 30 31 nan nan nan nan 31 29 28 nan nan 27 nan nan nan nan nan nan nan nan nan nan nan nan nan nan nan nan nan nan nan nan nan nan nan nan nan nan nan nan nan nan nan nan nan nan nan nan nan nan nan nan nan nan nan nan nan nan nan nan
29 27 24 22 22 19 16 14 15 14 15 14 15 19 22 25 26 27 27 27 29 27 25 27 30 nan 29 nan nan 26 28 27 27 27 27 27 27 28 29 29 29 29 30 nan nan nan nan nan nan nan nan nan nan nan nan nan nan nan nan nan nan nan nan nan nan nan nan nan nan nan nan nan nan nan nan nan nan nan nan nan nan nan nan nan nan
30 29 29 26 24 22 23 20 18 16 18 20 18 19 24 26 28 30 31 31 30 25 21 19 24 27 26 nan nan nan 27 26 26 27 27 28 28 29 29 30 31 nan nan nan nan nan nan nan nan nan nan nan nan nan nan nan nan nan nan nan nan nan nan nan nan nan nan nan nan nan nan nan nan nan nan nan nan nan nan nan nan nan nan nan nan
nan 29 29 28 24 21 22 23 20 19 21 21 20 22 30 30 27 25 26 26 26 26 25 nan 28 31 nan nan nan nan nan 25 26 27 28 29 29 29 31 31 nan nan nan nan nan nan nan nan nan nan nan nan nan nan nan nan nan nan nan nan nan nan nan nan nan nan nan nan nan nan nan nan nan nan nan nan nan nan nan nan nan nan nan nan nan
30 31 31 29 26 23 23 25 25 24 23 25 27 28 30 29 25 23 23 24 25 26 28 30 32 nan nan nan nan nan nan nan nan nan nan nan nan nan nan nan nan nan nan nan nan nan nan nan nan nan nan nan nan nan nan nan nan nan nan nan nan nan nan nan nan nan nan nan nan nan nan nan nan nan nan nan nan nan nan nan nan nan nan nan nan
nan nan 33 32 29 26 26 28 25 23 24 27 28 29 29 27 28 27 26 27 27 27 29 30 nan nan nan nan nan nan nan nan nan nan nan nan nan nan nan nan nan nan nan nan nan nan nan nan nan nan nan nan nan nan nan nan nan nan nan nan nan nan nan nan nan nan nan nan nan nan nan nan nan nan nan nan nan nan nan nan nan nan nan nan nan
nan nan nan nan nan 28 28 nan 27 25 25 28 25 24 24 23 24 25 25 26 27 28 nan nan nan nan nan 24 nan nan nan nan nan nan nan nan nan nan nan nan nan nan nan nan nan nan nan nan nan nan nan nan nan nan nan nan nan nan nan nan nan nan nan nan nan nan nan nan nan nan nan nan nan nan nan nan nan nan nan nan nan nan nan nan nan
nan nan nan nan nan nan 25 26 nan 27 25 22 23 22 20 20 19 20 26 26 28 29 30 30 28 26 25 nan nan nan nan nan nan nan nan nan nan nan nan nan nan nan nan nan nan nan nan nan nan nan nan nan nan nan nan nan nan nan nan nan nan nan nan nan nan nan nan nan nan nan nan nan nan nan nan nan nan nan nan nan nan nan nan nan nan
nan nan nan nan nan nan nan nan nan nan nan nan 24 nan nan 22 23 25 27 29 30 31 30 28 27 nan nan nan nan nan nan nan nan nan nan nan nan nan nan nan nan nan nan nan nan nan nan nan nan nan nan nan nan nan nan nan nan nan nan nan nan nan nan nan nan nan nan nan nan nan nan nan nan nan nan nan nan nan nan nan nan nan nan nan nan
nan nan nan nan nan nan nan nan nan nan nan nan nan nan nan nan nan nan nan nan nan nan nan nan nan nan nan nan nan nan nan nan nan nan nan nan nan nan nan nan nan nan nan nan nan nan nan nan nan nan nan nan nan nan nan nan nan nan nan nan nan nan nan nan nan nan nan nan nan nan nan nan nan nan nan nan nan nan nan nan nan nan nan nan nan
Wind_Direction
339 339 334 338 331 324 313 299 292 282 279 276 274 270 265 266 265 266 265 268 260 252 253 263 270 273 276 282 291 292 297 302 305 310 317 nan nan nan nan nan nan nan nan nan nan nan nan nan nan nan nan nan nan nan nan nan nan nan nan nan nan nan nan nan nan nan nan nan nan nan nan nan nan nan nan nan nan nan nan nan nan nan nan nan nan
337 335 333 333 336 328 318 303 292 282 279 273 271 268 264 262 260 260 268 263 249 245 251 254 258 266 270 280 285 289 296 302 304 308 319 nan nan nan nan nan nan nan nan nan nan nan nan nan nan nan nan nan nan nan nan nan nan nan nan nan nan nan nan nan nan nan nan nan nan nan nan nan nan nan nan nan nan nan nan nan nan nan nan nan nan
331 325 331 333 334 324 314 306 296 290 285 273 270 265 261 257 256 263 263 249 236 237 246 249 254 261 266 274 282 289 298 302 305 314 325 331 nan nan nan nan nan nan nan nan nan nan nan nan nan nan nan nan nan nan nan nan nan nan nan nan nan nan nan nan nan nan nan nan nan nan nan nan nan nan nan nan nan nan nan nan nan nan nan nan nan
319 324 330 331 326 323 321 308 303 298 291 277 268 260 256 253 254 259 253 239 236 235 238 244 249 259 268 274 282 292 299 304 308 319 329 332 336 nan nan nan nan nan nan nan nan nan nan nan nan nan nan nan nan nan nan nan nan nan nan nan nan nan nan nan nan nan nan nan nan nan nan nan nan nan nan nan nan nan nan nan nan nan nan nan nan
316 322 325 327 327 329 325 314 315 314 301 273 260 254 254 253 253 256 243 234 236 238 234 237 247 256 268 280 290 300 307 308 315 323 329 333 339 343 nan nan nan nan nan nan nan nan nan nan nan nan nan nan nan nan nan nan nan nan nan nan nan nan nan nan nan nan nan nan nan nan nan nan nan nan nan nan nan nan nan nan nan nan nan nan nan
317 318 320 327 332 335 327 323 329 328 308 271 252 249 250 253 255 245 236 235 238 238 237 237 245 258 268 282 296 307 306 312 323 329 333 336 339 nan nan nan nan nan nan nan nan nan nan nan nan nan nan nan nan nan nan nan nan nan nan nan nan nan nan nan nan nan nan nan 322 316 311 314 nan nan nan nan nan nan nan nan nan nan nan nan nan
314 317 322 329 333 338 333 329 326 325 307 267 247 245 249 254 253 240 233 237 239 237 237 240 239 254 270 282 296 304 309 316 324 329 332 334 nan nan nan nan nan nan nan nan nan nan nan nan nan nan nan nan nan nan nan nan nan nan nan nan nan nan nan nan nan 320 321 320 314 313 310 305 nan nan nan nan 296 nan nan nan nan nan nan nan nan
315 320 321 330 339 342 334 322 316 317 298 266 252 251 253 252 241 231 234 238 239 242 243 242 242 251 270 283 290 295 309 321 325 325 326 328 nan nan nan 328 nan nan nan nan 324 nan nan nan nan nan nan nan nan nan nan nan nan nan nan nan 323 322 323 321 320 320 319 316 nan 310 nan nan nan 297 296 294 294 nan nan nan nan nan nan nan nan
317 318 320 332 340 335 324 314 308 304 295 276 263 261 262 253 235 232 236 236 237 244 242 242 248 257 267 279 287 295 311 323 322 323 325 328 328 329 327 328 332 330 320 315 312 nan nan nan nan nan nan nan 327 nan nan nan nan 328 326 323 322 nan nan 320 320 318 317 312 308 302 298 294 295 293 291 294 295 296 294 292 nan nan nan nan nan
316 318 326 336 331 320 313 310 309 303 297 289 273 266 263 251 235 234 238 241 245 244 239 240 251 264 271 276 285 297 312 318 332 338 334 329 328 325 322 324 327 319 314 310 315 nan nan nan nan 336 334 332 329 329 331 333 334 nan 325 322 321 320 nan 320 318 317 313 308 306 nan nan nan nan 295 296 296 295 293 291 nan nan nan nan nan nan
313 320 334 331 314 308 307 308 306 307 304 292 275 268 266 253 238 236 241 246 250 244 239 245 253 260 272 278 289 295 306 320 343 340 340 337 328 322 317 317 314 313 318 325 nan nan nan nan nan 328 331 330 328 332 333 335 337 338 333 327 323 321 319 317 315 nan nan nan nan nan nan nan 299 298 298 299 298 nan nan nan nan nan nan nan nan
312 322 328 311 303 306 305 302 303 305 302 299 285 272 265 257 245 244 248 250 247 243 242 250 260 267 270 278 287 296 309 331 341 342 339 337 331 317 307 310 315 317 323 328 330 331 335 331 329 nan nan 327 323 323 330 337 339 338 334 330 327 324 317 nan nan nan nan nan nan nan 302 301 299 300 301 300 nan nan nan nan nan nan nan nan nan
306 310 307 302 305 304 299 297 300 300 301 298 287 273 268 264 257 255 259 254 247 248 249 255 265 271 277 284 292 302 311 334 340 340 337 335 329 310 302 308 317 323 323 326 330 335 335 333 332 nan nan 333 325 322 324 329 335 335 330 325 320 319 nan nan nan nan nan nan nan 303 302 300 302 303 302 nan nan nan 299 299 nan nan nan nan nan
300 304 301 303 307 304 299 297 298 299 294 292 290 283 274 271 265 259 256 255 254 251 253 264 268 274 279 286 293 299 313 329 337 336 335 331 317 304 308 315 311 310 319 324 326 332 337 337 335 nan nan nan 325 325 327 329 322 317 316 313 312 310 308 nan 309 310 nan 306 304 303 302 303 307 304 302 301 301 nan nan nan nan nan nan nan nan
300 303 302 301 300 303 304 303 300 295 292 292 294 292 283 272 267 260 260 266 265 259 260 266 270 276 282 285 288 298 309 328 331 334 329 321 310 307 308 313 317 315 320 320 321 332 338 339 337 nan nan nan nan 330 330 325 317 315 312 312 309 305 304 305 306 nan 304 305 305 306 306 305 306 nan nan nan nan nan nan nan nan nan nan nan nan
294 293 297 298 300 301 302 302 298 294 294 295 298 298 287 276 271 264 261 263 262 256 255 262 271 275 281 286 291 300 306 321 326 328 321 310 307 303 306 319 328 319 317 318 327 nan 337 338 nan 332 nan nan nan 338 332 320 317 314 312 309 305 303 303 302 304 306 305 306 306 307 306 nan nan nan nan nan nan nan nan nan nan nan nan nan nan
287 291 297 299 297 295 296 297 296 295 296 299 302 300 293 281 269 261 262 265 266 266 266 269 272 276 283 287 291 296 299 309 320 319 310 304 302 301 311 321 320 318 318 327 336 339 334 nan nan nan nan nan nan 336 329 318 314 312 310 308 305 303 302 301 302 301 302 303 305 306 nan nan nan nan nan nan nan nan nan nan nan nan nan nan nan
286 290 296 296 293 290 290 292 294 293 292 298 301 299 295 281 269 262 264 267 269 269 265 265 269 274 280 285 290 293 295 299 311 309 301 303 303 303 306 308 311 311 321 330 327 330 330 nan nan nan nan 332 nan 331 323 316 312 311 nan nan 306 306 306 305 304 302 301 305 306 nan nan nan nan nan nan nan nan nan nan nan nan nan nan nan nan
286 289 296 296 291 287 284 285 290 293 293 292 292 298 298 289 273 262 260 263 266 261 259 261 266 270 275 280 289 294 288 286 298 298 296 301 304 301 303 302 307 316 322 324 323 nan nan 328 331 nan nan nan nan 322 319 315 309 309 309 308 308 308 310 308 306 304 303 nan nan nan nan nan nan nan nan nan nan nan nan nan nan nan nan nan nan
288 288 291 288 284 285 286 289 291 292 293 288 287 293 291 285 278 268 261 259 259 258 259 261 266 268 270 272 274 282 279 274 284 291 292 300 304 297 298 301 309 319 321 321 319 317 318 nan 326 nan nan nan 316 314 318 317 311 309 nan 307 308 309 306 305 305 304 nan nan nan nan nan nan nan nan nan nan nan nan nan nan nan nan nan nan nan
284 286 287 284 284 288 289 292 294 291 287 284 283 282 281 286 285 277 267 259 259 258 259 257 259 260 262 265 268 271 272 274 278 286 289 297 298 297 299 304 314 318 318 317 312 312 312 nan nan 324 326 318 317 320 319 318 314 nan 308 307 309 308 308 305 nan nan nan nan nan nan nan nan nan nan nan nan nan nan nan nan nan nan nan nan nan
281 279 279 281 284 285 286 285 286 279 274 271 271 275 277 279 280 280 271 263 262 260 255 253 254 256 260 267 269 271 270 276 272 280 287 291 296 298 295 307 313 311 311 310 308 307 nan nan nan 319 319 316 318 318 316 315 313 304 307 309 309 308 307 nan nan nan nan nan nan nan nan nan nan nan nan nan nan nan nan nan nan nan nan nan nan
270 267 267 272 276 281 282 283 280 271 266 267 268 268 268 270 268 268 269 266 263 261 259 258 259 261 264 267 268 265 264 268 276 278 286 291 293 297 309 306 307 305 307 308 308 nan nan nan nan 313 313 312 313 313 311 310 308 306 309 309 309 307 nan nan nan nan nan nan nan nan nan nan nan nan nan nan nan nan nan nan nan nan nan nan nan
270 267 266 267 269 272 277 281 282 278 272 265 263 263 264 267 268 266 267 268 267 266 262 261 260 263 267 266 263 263 266 268 271 275 278 283 286 294 305 305 304 303 305 305 304 304 nan nan 306 308 308 307 306 306 308 309 308 308 308 307 305 nan nan nan nan nan nan nan nan nan nan nan nan nan nan nan nan nan nan nan nan nan nan nan nan
270 271 271 271 270 269 269 270 273 272 266 259 257 258 259 262 266 266 264 264 265 265 266 266 265 266 266 266 265 266 267 267 269 278 288 284 276 285 301 302 307 305 304 302 302 nan nan 308 304 301 300 300 301 301 303 304 304 307 307 306 nan nan nan nan nan nan nan nan nan nan nan nan nan nan nan nan nan nan nan nan nan nan nan nan nan
275 276 276 276 276 275 274 274 274 275 273 266 263 261 260 257 260 261 264 265 264 265 267 268 267 267 267 267 270 271 271 271 270 275 281 275 268 285 310 309 311 310 308 305 nan nan nan 302 295 293 295 nan nan nan 304 305 304 nan nan nan nan nan nan nan nan nan nan nan nan nan nan nan nan nan nan nan nan nan nan nan nan nan nan nan nan
280 278 278 278 277 276 278 276 276 278 279 277 274 270 264 259 257 258 263 267 269 270 269 269 268 266 265 267 269 271 272 271 270 275 276 269 267 288 307 305 308 308 303 nan nan nan nan nan nan nan nan nan nan 298 299 303 nan nan nan nan nan nan nan nan nan nan nan nan nan nan nan nan nan nan nan nan nan nan nan nan nan nan nan nan nan
281 282 283 281 279 280 279 284 283 279 282 282 279 273 267 263 260 260 263 266 269 271 273 270 266 264 262 263 265 267 270 270 272 278 277 267 271 294 302 300 303 303 nan nan nan nan nan nan nan nan nan nan 296 298 299 303 nan nan nan nan nan nan nan nan nan nan nan nan nan nan nan nan nan nan nan nan nan nan nan nan nan nan nan nan nan
269 274 277 278 278 276 271 266 267 273 279 281 279 275 273 269 265 260 261 262 264 267 263 259 258 259 263 263 261 262 266 271 275 279 280 277 286 299 300 299 nan nan nan nan nan nan nan nan nan nan 299 300 301 301 302 nan nan nan nan nan nan nan nan nan nan nan nan nan nan nan nan nan nan nan nan nan nan nan nan nan nan nan nan nan nan
262 265 266 267 266 267 269 272 272 268 269 275 273 259 250 255 256 261 262 262 264 266 266 263 265 268 270 266 261 262 269 272 275 278 278 281 289 300 nan nan nan nan nan nan nan nan nan nan 298 300 302 302 303 304 nan nan nan nan nan nan nan nan nan nan nan nan nan nan nan nan nan nan nan nan nan nan nan nan nan nan nan nan nan nan nan
259 259 262 263 269 271 272 272 272 272 273 276 271 265 262 258 251 247 248 270 276 274 269 268 268 269 271 270 262 257 265 274 279 277 280 283 nan nan 292 296 nan nan nan nan nan nan nan 297 300 301 302 303 nan nan 307 308 312 nan nan nan nan nan nan nan nan nan nan nan nan nan nan nan nan nan nan nan nan nan nan nan nan nan nan nan nan
261 261 262 264 267 269 268 269 269 269 269 269 269 270 270 266 257 253 252 254 270 271 264 265 268 264 262 263 264 258 267 274 277 278 281 nan nan nan nan 297 nan nan nan nan nan nan nan nan 302 303 nan nan nan 305 306 310 314 nan nan nan nan nan nan nan nan nan nan nan nan nan nan nan nan nan nan nan nan nan nan nan nan nan nan nan nan
261 263 263 264 264 263 264 265 265 266 266 264 263 266 267 266 269 266 258 259 256 253 262 269 268 264 262 263 266 267 269 274 nan nan nan nan nan nan nan nan nan nan nan nan nan nan nan nan nan nan nan 305 303 305 308 312 nan nan nan nan nan nan nan nan nan nan nan nan nan nan nan nan nan nan nan nan nan nan nan nan nan nan nan nan nan
259 258 257 258 258 258 259 262 263 263 264 266 268 273 274 275 273 270 267 267 264 257 246 245 254 261 262 264 262 263 266 nan nan nan nan nan nan nan nan nan nan nan nan nan nan nan nan nan 298 nan nan nan nan nan nan nan nan nan nan nan nan nan nan nan nan nan nan nan nan nan nan nan nan nan nan nan nan nan nan nan nan nan nan nan nan
266 265 262 259 259 256 255 258 262 265 265 266 266 267 270 275 272 265 265 269 272 273 271 256 239 240 255 259 263 nan nan nan nan nan nan nan nan nan nan nan nan nan nan nan nan nan nan nan nan nan nan nan nan nan nan nan nan nan nan nan nan nan nan nan nan nan nan nan nan nan nan nan nan nan nan nan nan nan nan nan nan nan nan nan nan
264 266 271 275 271 265 256 250 247 250 255 262 262 260 260 262 259 256 262 271 273 273 269 255 247 242 252 256 nan nan nan nan nan nan nan nan nan nan nan nan nan nan nan nan nan nan nan nan nan nan nan nan nan nan nan nan nan nan nan nan nan nan nan nan nan nan nan nan nan nan nan nan nan nan nan nan nan nan nan nan nan nan nan nan nan
266 267 275 278 271 264 252 242 241 245 250 255 261 265 266 261 252 251 260 267 266 266 267 260 250 247 247 244 nan nan nan nan nan nan nan nan nan nan nan nan nan nan nan nan nan nan nan nan nan nan nan nan nan nan nan nan nan nan nan nan nan nan nan nan nan nan nan nan nan nan nan nan nan nan nan nan nan nan nan nan nan nan nan nan nan
271 273 275 269 267 268 265 253 249 251 252 255 258 260 260 259 252 251 258 263 261 257 256 257 255 259 257 245 nan nan nan nan nan nan nan nan nan nan nan nan nan nan nan nan nan nan nan nan nan nan nan nan nan nan nan nan nan nan nan nan nan nan nan nan nan nan nan nan nan nan nan nan nan nan nan nan nan nan nan nan nan nan nan nan nan
264 260 259 nan 237 242 250 252 253 254 249 247 248 250 251 250 246 243 246 252 251 247 249 nan nan nan nan nan nan nan nan nan nan nan nan nan nan nan nan nan nan nan nan nan nan nan nan nan nan nan nan nan nan nan nan nan nan nan nan nan nan nan nan nan nan nan nan nan nan nan nan nan nan nan nan nan nan nan nan nan nan nan nan nan nan
259 255 247 249 250 236 216 204 207 226 240 243 246 254 251 244 240 237 242 250 256 255 255 258 258 258 nan nan nan nan nan nan nan nan nan nan nan nan nan nan nan nan nan nan nan nan nan nan nan nan nan nan nan nan nan nan nan nan nan nan nan nan nan nan nan nan nan nan nan nan nan nan nan nan nan nan nan nan nan nan nan nan nan nan nan
259 256 254 254 254 245 235 220 194 178 191 227 245 254 257 252 251 249 242 240 250 258 261 nan nan nan nan nan nan nan nan nan 270 269 nan nan nan nan nan nan nan nan nan nan nan nan nan nan nan nan nan nan nan nan nan nan nan nan nan nan nan nan nan nan nan nan nan nan nan nan nan nan nan nan nan nan nan nan nan nan nan nan nan nan nan
257 259 263 267 260 251 247 242 232 219 205 220 248 252 257 257 260 263 260 261 266 nan nan nan nan 266 268 nan nan nan nan 270 268 266 nan nan 272 nan nan nan nan nan nan nan nan nan nan nan nan nan nan nan nan nan nan nan nan nan nan nan nan nan nan nan nan nan nan nan nan nan nan nan nan nan nan nan nan nan nan nan nan nan nan nan nan
257 258 257 255 247 242 246 244 237 241 264 260 261 271 274 274 268 258 257 262 263 264 271 273 269 nan 267 nan nan 257 260 264 265 267 268 270 270 270 270 270 272 274 276 nan nan nan nan nan nan nan nan nan nan nan nan nan nan nan nan nan nan nan nan nan nan nan nan nan nan nan nan nan nan nan nan nan nan nan nan nan nan nan nan nan nan
263 262 263 261 255 254 259 254 233 239 265 283 281 275 278 276 270 266 262 263 269 268 254 250 262 266 265 nan nan nan 260 261 263 266 269 269 270 270 269 269 270 nan nan nan nan nan nan nan nan nan nan nan nan nan nan nan nan nan nan nan nan nan nan nan nan nan nan nan nan nan nan nan nan nan nan nan nan nan nan nan nan nan nan nan nan
nan 256 261 264 259 260 270 272 267 270 285 292 287 287 287 284 279 267 259 258 256 256 261 nan 257 262 nan nan nan nan nan 262 264 266 268 270 270 268 268 268 nan nan nan nan nan nan nan nan nan nan nan nan nan nan nan nan nan nan nan nan nan nan nan nan nan nan nan nan nan nan nan nan nan nan nan nan nan nan nan nan nan nan nan nan nan
256 254 254 259 267 273 274 276 278 283 288 291 294 290 284 277 267 258 257 261 263 265 261 258 258 nan nan nan nan nan nan nan nan nan nan nan nan nan nan nan nan nan nan nan nan nan nan nan nan nan nan nan nan nan nan nan nan nan nan nan nan nan nan nan nan nan nan nan nan nan nan nan nan nan nan nan nan nan nan nan nan nan nan nan nan
nan nan 252 257 260 261 263 261 258 264 273 280 282 278 274 266 256 254 260 267 268 264 262 260 nan nan nan nan nan nan nan nan nan nan nan nan nan nan nan nan nan nan nan nan nan nan nan nan nan nan nan nan nan nan nan nan nan nan nan nan nan nan nan nan nan nan nan nan nan nan nan nan nan nan nan nan nan nan nan nan nan nan nan nan nan
nan nan nan nan nan 265 269 nan 271 270 272 272 262 255 253 250 257 259 257 259 259 260 nan nan nan nan nan 263 nan nan nan nan nan nan nan nan nan nan nan nan nan nan nan nan nan nan nan nan nan nan nan nan nan nan nan nan nan nan nan nan nan nan nan nan nan nan nan nan nan nan nan nan nan nan nan nan nan nan nan nan nan nan nan nan nan
nan nan nan nan nan nan 261 261 nan 261 256 247 243 244 250 253 248 254 265 264 266 267 266 263 260 259 263 nan nan nan nan nan nan nan nan nan nan nan nan nan nan nan nan nan nan nan nan nan nan nan nan nan nan nan nan nan nan nan nan nan nan nan nan nan nan nan nan nan nan nan nan nan nan nan nan nan nan nan nan nan nan nan nan nan nan
nan nan nan nan nan nan nan nan nan nan nan nan 237 nan nan 243 250 250 259 270 272 267 262 261 265 nan nan nan nan nan nan nan nan nan nan nan nan nan nan nan nan nan nan nan nan nan nan nan nan nan nan nan nan nan nan nan nan nan nan nan nan nan nan nan nan nan nan nan nan nan nan nan nan nan nan nan nan nan nan nan nan nan nan nan nan
nan nan nan nan nan nan nan nan nan nan nan nan nan nan nan nan nan nan nan nan nan nan nan nan nan nan nan nan nan nan nan nan nan nan nan nan nan nan nan nan nan nan nan nan nan nan nan nan nan nan nan nan nan nan nan nan nan nan nan nan nan nan nan nan nan nan nan nan nan nan nan nan nan nan nan nan nan nan nan nan nan nan nan nan nan